User: anonymous   Login
Location: Unspecified
(0.0000°N, 0.0000°E)
Time: 06:52:49
(UTC+00:00)
Language:

HONGHU 2 - Orbit

View from above orbital plane
View from above orbital plane
View from above satellite
View from above satellite

Ground track
Ground track

The orbit is defined by the following mean orbital elements,

1 58555U          26145.61398056 +.00000000 +00000-0 +79609-2 0 00000
2 58555  97.2793 136.4743 0040670 355.6856   4.4025 15.23550637    02
Epoch (UTC): 25 May 2026 14:44:07
Eccentricity: 0.0040670
inclination: 97.2793°
perigee height: 467 km
apogee height: 523 km
right ascension of ascending node: 136.4743°
argument of perigee: 355.6856°
revolutions per day: 15.23550637
mean anomaly at epoch: 4.4025°

The dashed part of the orbit path shows where the satellite is in the earth's shadow,  

DLR